Altus AFB, OK

11:49 AM CDT on April 29, 2017 (GMT -0500)
Altus Air Force Base

Weather History for KLTS - June, 2012

Change the Weather History Date:

Wednesday, June 20, 2012

  Actual Average Record
Temperature  
Mean Temperature 83 °F -  
Max Temperature 93 °F 89 °F 113 °F (1998)
Min Temperature 73 °F 67 °F 65 °F (2007)
Cooling Degree Days 18    
Growing Degree Days 33 (Base 50)    
Moisture  
Dew Point 68 °F    
Average Humidity 65    
Maximum Humidity 88    
Minimum Humidity 41    
Precipitation  
Precipitation 0.00 in - - ()
Sea Level Pressure  
Sea Level Pressure 29.80 in    
Wind  
Wind Speed 21 mph (SSE)    
Max Wind Speed 26 mph    
Max Gust Speed 36 mph    
Visibility 10 miles    
Events Rain    
Averages and records for this station are not official NWS values.
T = Trace of Precipitation, MM = Missing Value Source: NWS Daily Summary

Daily Weather History Graph

Daily Weather History Graph

Search for Another Location

Airport or City:

Trip Planner

Search our weather history database for the weather conditions in past years. The results will help you decide how hot, cold, wet, or windy it might be!

Date:

Astronomy

Jun. 20, 2012 Rise Set
Actual Time 6:24 AM CDT 8:53 PM CDT
Civil Twilight 5:54 AM CDT 9:22 PM CDT
Nautical Twilight 5:18 AM CDT 9:59 PM CDT
Astronomical Twilight 4:38 AM CDT 10:39 PM CDT
Moon 7:22 AM CDT (6/20) 9:43 PM CDT (6/20)
Length of Visible Light 15h 28m
Length of Day
14h 28m
New Moon, 1% of the Moon is Illuminated
Jun 20
New Moon
Jun 26
First Quarter
Jul 3
Full
Jul 10
Last Quarter
Jul 18
New

Hourly Weather History & Observations

Time (CDT) Temp. Heat Index Dew Point Humidity Pressure Visibility Wind Dir Wind Speed Gust Speed Precip Events Conditions
12:55 AM 77.9 °F - 68.0 °F 71% 29.75 in 10.0 mi SE 20.7 mph 28.8 mph N/A   Clear
1:55 AM 76.5 °F - 68.0 °F 75% 29.75 in 10.0 mi SSE 21.9 mph 28.8 mph N/A   Clear
2:55 AM 75.4 °F - 69.1 °F 81% 29.74 in 10.0 mi SE 21.9 mph 28.8 mph N/A   Clear
3:55 AM 74.5 °F - 69.8 °F 85% 29.75 in 10.0 mi SSE 19.6 mph 28.8 mph N/A   Clear
4:15 AM 75.2 °F - 69.8 °F 83% 29.76 in 10.0 mi SSE 19.6 mph 27.6 mph N/A   Mostly Cloudy
4:43 AM 75.2 °F - 69.8 °F 83% 29.76 in 10.0 mi SSE 17.3 mph - N/A   Scattered Clouds
4:55 AM 74.3 °F - 69.6 °F 85% 29.76 in 10.0 mi SSE 19.6 mph - N/A   Scattered Clouds
5:40 AM 73.4 °F - 69.8 °F 88% 29.78 in 10.0 mi SSE 16.1 mph - N/A   Mostly Cloudy
5:55 AM 73.4 °F - 69.8 °F 88% 29.78 in 10.0 mi SSE 16.1 mph - N/A   Mostly Cloudy
6:44 AM 73.4 °F - 69.8 °F 88% 29.79 in 10.0 mi SSE 16.1 mph 24.2 mph N/A   Scattered Clouds
6:55 AM 73.4 °F - 69.8 °F 88% 29.79 in 10.0 mi SSE 17.3 mph - N/A   Scattered Clouds
7:55 AM 75.0 °F - 69.8 °F 84% 29.81 in 10.0 mi SSE 21.9 mph 27.6 mph N/A   Clear
8:39 AM 77.0 °F - 69.8 °F 78% 29.82 in 10.0 mi SSE 23.0 mph 33.4 mph N/A   Mostly Cloudy
8:44 AM 77.0 °F - 69.8 °F 78% 29.82 in 10.0 mi SSE 24.2 mph 33.4 mph N/A   Mostly Cloudy
8:55 AM 77.7 °F - 70.0 °F 77% 29.82 in 10.0 mi SSE 26.5 mph 31.1 mph N/A   Mostly Cloudy
9:43 AM 78.8 °F - 69.8 °F 74% 29.82 in 10.0 mi SSE 21.9 mph 33.4 mph N/A   Overcast
9:55 AM 80.6 °F 83.9 °F 70.0 °F 70% 29.82 in 10.0 mi SSE 23.0 mph 29.9 mph N/A   Overcast
10:34 AM 82.4 °F 86.3 °F 69.8 °F 66% 29.82 in 10.0 mi South 25.3 mph 34.5 mph N/A   Overcast
10:55 AM 82.2 °F 85.5 °F 69.1 °F 64% 29.82 in 10.0 mi South 23.0 mph 35.7 mph N/A   Overcast
11:55 AM 85.1 °F 89.1 °F 69.3 °F 59% 29.82 in 10.0 mi South 23.0 mph 33.4 mph N/A   Mostly Cloudy
12:55 PM 87.4 °F 91.9 °F 69.3 °F 55% 29.82 in 10.0 mi SSE 18.4 mph 29.9 mph N/A   Mostly Cloudy
1:17 PM 89.6 °F 93.4 °F 68.0 °F 49% 29.81 in 10.0 mi SSE 25.3 mph 29.9 mph N/A   Mostly Cloudy
1:20 PM 89.6 °F 93.4 °F 68.0 °F 49% 29.81 in 10.0 mi South 19.6 mph 29.9 mph N/A   Mostly Cloudy
1:23 PM 89.6 °F 93.4 °F 68.0 °F 49% 29.81 in 10.0 mi SSE 25.3 mph 31.1 mph N/A   Mostly Cloudy
1:55 PM 90.3 °F 94.7 °F 68.7 °F 49% 29.80 in 10.0 mi SSE 21.9 mph 31.1 mph N/A   Scattered Clouds
2:19 PM 89.6 °F 93.4 °F 68.0 °F 49% 29.80 in 10.0 mi SSE 18.4 mph 27.6 mph N/A   Mostly Cloudy
2:22 PM 89.6 °F 93.4 °F 68.0 °F 49% 29.80 in 10.0 mi SSE 26.5 mph 32.2 mph N/A   Scattered Clouds
2:55 PM 91.4 °F 94.9 °F 67.5 °F 45% 29.79 in 10.0 mi South 24.2 mph 32.2 mph N/A   Partly Cloudy
3:55 PM 91.2 °F 94.1 °F 66.7 °F 44% 29.81 in 10.0 mi South 20.7 mph 27.6 mph N/A   Scattered Clouds
4:55 PM 92.8 °F 96.1 °F 66.4 °F 42% 29.78 in 10.0 mi SSE 21.9 mph 27.6 mph N/A   Partly Cloudy
5:13 PM 93.2 °F 96.2 °F 66.2 °F 41% 29.78 in 10.0 mi SSE 24.2 mph 31.1 mph N/A Rain Light Rain
5:55 PM 92.1 °F 94.4 °F 65.5 °F 41% 29.78 in 10.0 mi SSE 23.0 mph - N/A   Partly Cloudy
6:55 PM 91.0 °F 93.8 °F 66.4 °F 44% 29.79 in 10.0 mi SSE 20.7 mph - N/A   Clear
7:55 PM 89.2 °F 92.0 °F 66.4 °F 47% 29.81 in 10.0 mi SSE 17.3 mph 24.2 mph N/A   Clear
8:55 PM 86.5 °F 89.3 °F 66.7 °F 52% 29.82 in 10.0 mi SE 17.3 mph - N/A   Clear
9:55 PM 83.7 °F 86.0 °F 66.2 °F 56% 29.84 in 10.0 mi SE 16.1 mph - N/A   Clear
10:55 PM 80.6 °F 82.7 °F 65.8 °F 61% 29.88 in 10.0 mi SE 10.4 mph - N/A   Clear
11:55 PM 78.3 °F - 67.1 °F 68% 29.91 in 10.0 mi SE 11.5 mph - N/A   Clear